EHI
0 0 0 0 0 0 0 0 0 0 0 1 4 10 13 16 20 25 28 26 22 18 15 18 21 24 25 26 26 26 28 29 29 29 30 32 32 32 27 22 21 23 23 22
0 0 0 0 0 0 0 0 0 0 0 1 3 7 11 17 23 29 29 25 21 18 16 17 20 21 21 22 23 23 25 29 30 30 31 31 30 28 24 21 21 20 19 18
0 0 0 0 0 0 0 0 0 0 0 0 2 5 11 18 23 27 29 25 20 17 15 15 16 15 14 16 18 18 20 25 28 28 28 28 27 25 22 20 19 18 15 14
0 0 0 0 0 0 0 0 0 0 0 0 1 4 12 20 22 22 26 26 22 18 15 13 12 10 9 10 13 14 16 19 21 22 23 25 25 23 21 19 17 16 14 12
0 0 0 0 0 0 0 0 0 0 0 0 0 3 11 20 21 19 23 27 27 24 20 15 11 9 7 8 9 11 13 14 15 17 20 21 21 21 20 17 15 14 13 12
0 0 0 0 0 0 0 0 0 0 0 0 0 1 7 15 18 19 26 31 31 31 26 17 11 9 8 8 8 9 10 11 12 13 15 16 17 18 18 16 14 13 13 12
0 0 0 0 0 0 0 0 0 0 0 0 0 0 5 11 16 23 32 34 34 34 28 18 12 10 9 8 8 7 8 9 10 11 11 12 12 13 14 14 13 12 12 11
0 0 0 0 0 0 0 0 0 0 0 0 0 2 7 13 19 28 36 37 35 34 27 17 12 10 9 8 7 6 7 8 8 8 8 8 8 8 9 11 11 11 9 9
0 0 0 0 0 0 0 0 0 0 0 0 0 4 11 16 23 32 37 37 35 30 22 15 10 9 8 7 6 5 5 5 5 5 5 5 5 5 6 9 10 9 8 7
0 0 0 0 0 0 0 0 0 0 0 0 0 3 9 18 26 31 34 34 31 24 18 14 9 6 6 5 4 4 4 3 3 3 3 3 3 4 5 7 8 8 7 6
0 0 0 0 0 0 0 0 0 0 0 0 0 1 6 16 25 28 29 29 26 21 17 14 9 5 4 4 3 3 3 3 3 3 3 3 3 3 3 4 5 4 4 4
0 0 0 0 0 0 0 0 0 0 0 0 0 1 7 16 24 27 27 25 22 19 16 12 9 6 4 3 3 3 3 3 3 3 3 3 3 2 1 1 1 1 2 2
0 0 0 0 0 0 0 0 0 0 0 0 0 3 9 17 23 25 23 20 17 16 14 11 8 6 5 3 2 2 3 3 3 3 3 2 1 1 0 0 0 0 1 1
1 0 0 0 0 0 0 0 0 0 0 0 1 4 10 18 21 21 19 16 13 12 11 9 7 6 4 2 1 1 1 3 3 3 2 1 0 0 0 0 0 0 0 0
1 0 0 0 0 0 0 0 0 0 0 0 1 5 12 18 20 20 18 13 9 8 7 6 5 5 3 1 0 0 1 2 2 2 1 0 0 0 0 0 0 0 0 0
1 0 0 0 0 0 0 0 0 0 1 1 3 8 15 19 19 19 16 11 7 5 4 3 4 5 3 1 0 0 0 1 1 1 0 0 0 0 0 0 0 0 0 0
0 0 0 0 0 0 0 0 1 1 3 4 7 13 16 17 17 16 12 8 5 4 3 2 3 4 2 0 0 0 0 0 0 0 0 0 0 0 0 0 0 0 0 0
0 0 0 0 0 0 0 0 1 2 4 7 12 15 14 12 14 15 10 6 4 4 3 3 3 3 1 0 0 0 0 0 0 0 0 0 0 0 0 0 0 0 0 0
0 0 0 0 0 0 0 0 1 1 3 7 12 12 9 8 10 11 9 5 3 3 3 3 3 2 1 0 0 0 0 0 0 0 0 0 0 0 0 0 0 0 0 0
0 0 0 0 0 0 0 0 0 0 2 5 9 8 6 6 8 10 8 5 3 2 2 2 2 1 0 0 0 0 0 0 0 0 0 0 0 0 0 0 0 0 0 0
0 0 0 0 0 0 0 0 1 2 2 5 7 8 8 9 11 12 11 7 3 1 1 1 1 0 0 0 0 0 0 0 0 0 0 0 0 0 0 0 1 1 1 0
0 0 0 0 0 1 1 1 2 4 4 4 6 9 12 12 11 11 10 6 2 0 0 0 0 0 0 0 0 0 0 0 0 0 0 0 0 0 0 1 1 2 1 1
0 0 0 0 0 1 2 2 2 4 5 4 5 8 11 10 7 6 5 3 1 0 0 0 0 0 0 0 0 0 0 0 0 0 0 0 0 0 1 1 1 1 1 0
0 0 0 0 0 1 1 2 2 2 3 3 3 6 7 6 4 3 2 1 0 0 0 0 0 0 0 0 0 0 0 0 0 0 0 0 0 0 1 1 1 0 0 0
1 1 0 0 0 1 2 2 2 1 1 1 2 3 3 2 1 1 1 0 0 0 0 0 0 0 0 0 0 0 0 0 0 0 0 0 0 0 0 0 0 0 0 0
1 2 1 0 0 1 3 2 1 0 0 0 1 2 1 0 0 0 0 0 0 0 0 0 0 0 0 0 0 0 0 0 0 0 0 0 0 0 0 0 0 0 0 0
Wind_Speed
13 13 12 13 14 13 11 9 9 9 10 9 8 11 13 13 12 12 11 11 11 11 10 9 9 9 8 8 7 7 6 5 3 2 2 1 1 2 2 2 3 3 4 4
11 15 14 13 12 14 12 10 9 8 9 8 8 11 12 13 12 11 11 11 12 12 11 9 8 8 8 8 7 7 6 6 5 3 2 1 1 1 2 2 2 3 4 4
14 11 12 11 10 11 10 8 7 7 8 9 8 9 11 10 10 10 10 10 12 12 12 10 9 8 8 8 7 6 6 6 5 4 3 2 1 1 2 2 2 3 4 3
13 10 9 9 10 10 8 6 7 8 9 7 9 9 10 11 9 8 10 10 10 11 12 10 9 8 8 8 7 7 6 6 5 5 4 4 3 3 3 2 2 3 3 3
9 9 9 10 9 9 8 7 7 8 9 7 7 8 5 9 10 10 10 11 12 11 11 11 10 9 8 8 8 6 6 6 5 5 6 5 4 3 2 2 3 2 2 3
9 7 9 9 8 8 7 8 7 6 7 10 9 8 6 9 13 13 14 13 12 12 12 11 10 9 8 8 7 6 6 6 6 6 6 5 5 4 4 3 3 3 2 3
10 10 7 7 9 8 9 7 4 4 6 8 9 8 5 8 10 13 14 13 12 12 13 12 11 9 8 8 7 7 7 6 6 6 5 5 4 4 4 4 3 3 3 3
9 9 10 9 9 7 9 9 6 6 6 7 8 6 3 6 8 12 15 16 14 13 12 11 10 9 8 8 7 7 7 6 6 5 5 5 5 3 4 4 4 4 3 3
6 7 9 9 9 9 10 9 9 9 6 4 3 2 4 3 9 13 16 16 15 13 13 12 11 9 9 8 7 7 7 6 5 5 4 4 4 4 4 4 4 4 4 4
6 5 7 8 9 10 10 8 6 7 5 5 3 1 3 6 8 11 13 14 14 14 13 12 11 9 9 8 7 7 6 5 4 4 4 4 5 4 4 5 5 5 5 4
3 4 5 6 8 8 9 9 7 7 6 6 3 1 5 8 9 10 11 13 14 14 13 12 10 9 9 8 7 6 5 4 4 4 5 5 4 4 5 5 5 5 4 5
2 2 4 7 8 8 9 8 7 6 7 7 4 2 3 5 7 10 10 10 12 14 13 12 10 9 8 7 6 5 4 4 4 5 5 5 5 5 5 5 5 5 4 4
4 2 3 5 6 6 6 6 7 5 6 6 5 2 5 7 8 10 11 11 10 12 12 11 10 8 8 7 6 5 4 4 4 5 5 5 5 5 5 5 5 5 5 5
4 3 3 5 5 6 6 6 6 5 4 5 3 3 6 7 7 9 11 11 10 11 10 10 9 8 7 6 6 5 4 4 4 5 5 5 4 4 4 4 4 4 4 4
2 4 5 6 7 7 6 6 5 4 5 6 2 4 6 6 8 10 11 11 11 10 10 10 9 7 7 6 5 5 5 4 4 4 4 4 3 3 4 3 3 4 4 5
0 4 5 6 5 5 6 6 6 5 5 4 3 5 8 9 9 9 9 10 10 10 10 9 9 8 7 6 6 5 5 4 3 4 4 4 4 4 4 3 4 5 5 5
3 3 4 5 5 5 4 5 5 4 7 6 5 7 9 9 9 8 9 9 9 9 9 9 8 8 7 6 6 5 5 4 4 4 4 4 4 4 4 4 5 5 5 5
4 4 3 5 4 3 2 4 4 5 8 8 9 9 9 10 9 8 7 8 9 10 9 9 9 8 7 6 6 5 4 4 4 4 4 3 3 4 4 5 5 5 4 4
3 3 5 4 3 2 0 3 4 4 7 9 9 9 9 11 10 8 8 9 10 10 9 9 9 8 7 6 6 5 4 4 4 4 4 4 4 4 5 5 5 4 3 3
5 5 5 4 4 2 3 6 3 1 4 6 6 6 6 6 4 6 9 10 12 11 10 9 8 8 7 6 5 5 4 5 5 4 5 5 4 5 5 5 4 3 2 3
5 5 5 5 3 2 6 7 5 2 3 5 6 6 5 4 6 11 12 12 12 12 11 10 9 8 6 6 5 5 5 5 5 4 5 4 4 4 4 3 2 2 2 2
2 3 3 3 2 2 8 5 6 5 4 6 8 10 11 13 14 13 13 13 12 12 11 10 8 7 6 6 6 6 5 5 4 4 4 4 3 2 4 2 2 2 1 1
1 2 3 3 2 4 6 8 6 5 7 8 9 10 12 12 12 12 12 12 11 11 10 9 9 8 6 5 5 6 5 5 5 4 4 3 3 2 2 2 2 1 1 1
1 1 1 2 5 7 7 7 7 7 8 9 9 10 11 12 13 12 11 10 10 10 9 8 9 8 7 6 6 6 6 5 5 4 4 3 2 2 2 1 1 2 2 2
3 2 1 3 4 6 6 7 7 7 8 10 10 10 11 12 13 12 10 10 9 9 8 8 8 8 9 8 7 6 6 5 4 4 3 3 3 3 3 4 4 4 4 3
3 3 2 2 3 3 5 5 6 7 8 9 10 11 12 12 12 12 10 9 9 9 8 7 8 8 9 8 7 6 6 5 4 3 3 2 3 3 3 4 4 5 3 3
Wind_Direction
204 220 222 214 220 235 234 225 209 205 185 202 188 159 176 164 166 164 147 139 132 124 114 102 97 95 90 83 77 68 60 47 41 43 41 48 55 56 63 58 38 21 7 359
208 222 228 224 219 237 241 219 204 193 183 201 196 179 171 173 171 159 152 147 136 131 121 115 108 100 92 83 76 71 61 47 37 34 26 44 47 58 73 58 49 29 15 2
220 222 217 225 219 232 244 224 204 205 193 208 200 197 180 173 159 160 156 150 144 142 136 133 126 114 102 90 78 72 61 50 39 28 30 31 68 53 49 45 47 30 17 12
226 220 210 219 221 228 245 227 205 209 221 216 216 226 191 172 171 176 165 156 149 144 137 133 124 113 106 101 90 78 68 56 44 32 33 25 40 43 32 29 33 31 23 15
219 207 207 215 221 225 240 235 219 217 239 247 239 253 196 176 186 187 184 166 152 146 137 129 121 113 106 99 94 85 75 62 52 41 37 36 38 33 32 26 20 12 23 20
229 214 211 217 219 231 247 233 228 234 245 243 238 236 218 194 198 189 182 165 151 144 135 127 122 116 110 101 94 90 81 69 59 53 46 43 38 30 26 18 14 8 18 18
219 212 211 215 221 217 238 238 229 242 246 257 257 238 208 181 183 177 168 153 148 145 137 136 132 124 112 100 91 84 80 70 59 53 47 39 34 27 28 22 18 12 16 17
217 206 204 208 222 225 232 239 231 243 242 242 245 231 160 146 154 158 149 144 146 144 140 137 129 121 112 101 92 84 76 69 60 52 46 40 28 28 27 22 15 25 23 15
224 214 206 201 212 230 229 238 241 259 278 274 262 114 83 110 136 140 142 145 147 147 142 136 128 123 115 105 95 88 79 68 57 48 48 50 37 35 30 24 27 30 22 20
237 218 212 204 215 224 247 248 254 265 286 291 273 231 164 177 154 149 149 150 150 148 141 134 130 125 116 111 102 93 85 73 59 49 38 46 42 39 36 39 39 35 28 23
238 234 234 228 232 234 238 245 253 279 281 286 283 225 172 178 160 152 158 157 152 146 139 134 130 126 120 116 112 104 97 83 70 64 51 42 41 40 42 46 40 31 25 17
288 250 238 250 258 263 246 248 251 268 287 293 307 75 94 119 134 143 146 141 140 136 135 135 132 129 123 116 108 98 94 84 78 72 61 50 46 44 41 40 36 28 24 20
337 299 230 242 266 269 269 265 275 281 291 303 307 105 90 80 103 121 124 124 128 132 133 131 131 129 124 116 106 98 86 77 74 74 70 60 49 46 42 37 30 25 23 24
309 286 274 245 257 254 259 274 281 293 295 295 300 137 111 104 116 122 122 125 126 132 132 131 131 127 122 118 113 104 90 78 73 74 71 64 53 50 48 40 31 25 25 29
307 290 289 267 258 264 266 274 276 267 278 295 0 88 102 110 125 126 127 129 131 135 136 134 133 130 127 124 116 105 89 75 73 78 73 72 62 58 55 46 36 31 29 37
290 286 297 289 281 287 292 300 311 311 313 321 50 79 90 92 102 114 124 132 136 139 138 134 134 132 129 125 119 106 95 89 90 84 80 76 69 59 54 49 45 43 38 35
264 271 282 274 268 276 291 320 317 352 12 5 36 82 101 101 104 120 132 135 137 136 134 133 132 129 126 123 117 115 110 103 91 85 81 76 71 59 52 55 54 49 45 47
273 293 279 272 281 269 290 330 2 37 41 44 78 90 93 99 107 108 121 131 135 135 133 130 129 128 126 123 122 122 120 115 102 94 87 77 75 69 59 56 53 51 47 46
236 262 279 280 274 247 180 7 12 45 59 44 68 86 100 112 113 103 110 122 128 128 125 121 123 125 125 123 124 123 121 112 104 97 88 77 71 68 65 64 58 49 48 49
210 232 257 279 283 296 24 353 352 85 95 54 75 95 119 151 141 120 115 116 118 118 116 117 120 122 124 125 127 125 115 107 101 96 88 80 71 71 68 67 67 56 49 49
223 234 258 269 273 65 11 338 327 343 57 43 72 90 104 84 86 117 119 115 116 117 120 124 126 128 130 132 130 123 112 106 103 98 94 88 82 89 86 78 72 63 59 67
290 292 291 306 319 31 0 15 44 67 78 74 80 90 94 97 106 115 118 120 122 123 126 130 130 128 131 134 130 122 115 114 111 104 99 97 90 87 95 93 85 75 68 88
8 4 359 30 71 93 61 69 79 79 84 86 93 104 111 115 118 120 122 124 127 129 132 134 133 130 127 127 128 126 123 121 118 113 109 104 95 82 97 111 113 102 68 39
70 61 101 88 93 87 83 85 81 80 91 98 108 115 120 122 125 126 127 129 131 134 137 141 141 137 133 132 129 130 133 130 126 123 122 124 120 122 91 48 54 59 38 28
344 338 79 111 114 104 85 82 92 99 103 109 112 116 122 128 129 130 132 136 140 142 143 147 146 139 139 141 138 137 133 136 138 137 148 146 138 124 95 71 42 52 56 40
352 5 7 69 80 88 103 102 112 116 117 121 122 121 126 130 133 134 135 137 140 143 146 148 145 142 143 143 141 142 146 153 153 155 168 167 158 146 143 135 110 61 82 91